Home   Weather   Palma   Past weeks

Flag for Spain Past Weather in Palma, Majorca, Spain — Yesterday and Last 2 Weeks

Now
50 °F

Passing clouds.


Feels Like: 49 °F
Forecast: 47 / 61 °F
Wind: 3 mph from Northeast

Location: Palma De Mallorca / Son San Juan

Current Time: Apr 27, 2017 at 10:42:38 pm

Latest Report: Apr 27, 2017 at 10:00 pm


Visibility: N/A

Pressure: 30.01 "Hg

Humidity: 88%

Dew Point: 46 °F

Location of PalmaLocation

Past Weather in Palma — Graph

°F

Palma Temperature Yesterday

Maximum temperature yesterday: 72 °F (at 5:00 pm)
Minimum temperature yesterday: 55 °F (at 12:30 am)
Average temperature yesterday: 63 °F

High & Low Weather Summary for the Past Weeks

 TemperatureHumidityPressure
High75 °F (Apr 18, 12:30 pm)100% (Apr 13, 1:00 am)30.39 "Hg (Apr 13, 1:00 am)
Low39 °F (Apr 21, 5:30 am)28% (Apr 21, 3:00 pm)29.71 "Hg (Apr 26, 5:00 am)
Average59 °F73%30.07 "Hg
* Reported Apr 12 9:00 pm — Apr 27 9:00 pm, Palma, Weather by CustomWeather, © 2017

Note: Actual official high and low records may vary slightly from our data, if they occured in-between our weather recording intervals... More about our weather records

Advertising

Palma Weather History for the Previous 24 Hours

Scroll right to see more
 ConditionsComfort  
Time TempWeatherWind HumidityBarometerVisibility
9:00 pm
Thu, Apr 27
50 °FPassing clouds.9 mph82%29.98 "HgN/A
8:30 pm50 °FPartly sunny.9 mph82%29.98 "HgN/A
8:00 pm50 °FPartly sunny.14 mph82%29.95 "HgN/A
7:30 pm50 °FScattered clouds.16 mph88%29.95 "HgN/A
7:00 pm50 °FBroken clouds.15 mph88%29.95 "HgN/A
6:30 pm50 °FPartly sunny.17 mph88%29.95 "HgN/A
6:00 pm50 °FBroken clouds.17 mph94%29.92 "HgN/A
5:30 pm50 °FBroken clouds.17 mph94%29.92 "HgN/A
5:00 pm52 °FBroken clouds.17 mph88%29.92 "HgN/A
4:30 pm52 °FBroken clouds.16 mph88%29.92 "HgN/A
4:00 pm50 °FBroken clouds.17 mph94%29.92 "Hg6 mi
3:30 pm50 °FBroken clouds.18 mph94%29.92 "Hg5 mi
2:30 pm50 °FBroken clouds.17 mph94%29.89 "Hg5 mi
2:00 pm50 °FBroken clouds.16 mph94%29.89 "Hg5 mi
1:30 pm50 °FBroken clouds.17 mph94%29.89 "Hg5 mi
12:49 pm50 °FLight rain. Broken clouds.16 mph94%29.89 "Hg4 mi
12:37 pm50 °FRain. Broken clouds.17 mph94%29.89 "Hg2 mi
12:00 pm52 °FDrizzle. Broken clouds.18 mph82%29.86 "Hg4 mi
11:30 am52 °FDrizzle. Broken clouds.23 mph82%29.86 "Hg5 mi
11:00 am52 °FDrizzle. Broken clouds.22 mph88%29.83 "Hg5 mi
10:30 am52 °FBroken clouds.25 mph88%29.83 "Hg5 mi
10:00 am52 °FBroken clouds.22 mph88%29.83 "Hg6 mi
9:30 am52 °FBroken clouds.24 mph88%29.80 "Hg5 mi
9:00 am52 °FBroken clouds.23 mph94%29.80 "Hg5 mi
8:30 am52 °FLight rain. Broken clouds.20 mph94%29.83 "Hg4 mi
8:00 am52 °FLight rain. Broken clouds.23 mph94%29.80 "Hg4 mi
7:30 am55 °FPartly sunny.20 mph77%29.80 "Hg6 mi
6:30 am57 °FPassing clouds.17 mph77%29.80 "HgN/A
5:30 am57 °FPassing clouds.15 mph77%29.80 "HgN/A
5:00 am55 °FPassing clouds.17 mph82%29.80 "HgN/A
4:30 am57 °FPassing clouds.18 mph77%29.80 "HgN/A
3:30 am57 °FPassing clouds.20 mph77%29.83 "HgN/A
3:00 am57 °FPassing clouds.20 mph82%29.83 "HgN/A
2:30 am57 °FPassing clouds.17 mph82%29.86 "HgN/A
2:00 am57 °FPassing clouds.20 mph82%29.86 "HgN/A
1:30 am57 °FPassing clouds.18 mph88%29.86 "HgN/A
12:30 am59 °FPassing clouds.15 mph82%29.86 "HgN/A
11:30 pm
Wed, Apr 26
59 °FPassing clouds.16 mph82%29.83 "HgN/A
11:00 pm59 °FPassing clouds.20 mph88%29.83 "HgN/A
10:30 pm59 °FPassing clouds.18 mph88%29.83 "HgN/A
10:00 pm61 °FPassing clouds.20 mph83%29.80 "HgN/A
Weather by CustomWeather, © 2017

See weather overviewHow to use our weather pages